Location: Glendale
(37.4556°N, 88.6714°W)
Time: 16:37:32
(UTC+00:00)

USA 234 - Pass Details

Date: 08 December 2019
Orbit: 1099 x 1108 km, 123.0° (Epoch: 16 January)

Event Time Altitude Azimuth Distance (km) Brightness Sun altitude
Rises 09:52:18 0° 42° (NE) 3,923 6.6 -35.8°
Reaches altitude 10° 09:54:48 10° 39° (NE) 2,964 5.9 -35.3°
Enters shadow 09:59:04 42° 21° (NNE) 1,524 4.0 -34.4°
